Location: Cactus School
(34.5700°N, 118.0931°W)
Time: 23:14:16
(UTC-07:00)

Courier 1B - Pass Details

Date: 21 April 2024
Orbit: 962 x 1208 km, 28.3° (Epoch: 28 May)

Event Time Altitude Azimuth Distance (km) Brightness Sun altitude
Exits shadow 05:35:48 - 262° (W) 3,038 9.4 -8.1°
Reaches altitude 10° 05:36:10 10° 261° (W) 2,911 9.3 -8.0°
Maximum altitude 05:42:50 44° 192° (SSW) 1,384 8.1 -6.7°
Drops below altitude 10° 05:49:07 10° 121° (ESE) 2,750 10.5 -5.5°
Sets 05:51:50 0° 115° (ESE) 3,673 11.3 -4.9°
